Regional Weather Roundup
Issued by NWS

Home | Current Version | Previous Version | Graphics & Text | Print | Product List | Glossary On
Versions: 1 2 3 4 5 6 7 8 9 10 11 12 13 14 15 16 17 18 19 20 21 22 23 24 25 26 27 28 29 30 31 32 33 34 35 36 37 38 39 40 41 42 43 44 45 46 47 48 49 50
000
ASUS43 KBIS 060620
RWRND

NORTH DAKOTA REGIONAL WEATHER ROUNDUP
NATIONAL WEATHER SERVICE BISMARCK ND
1200 AM CST FRI MAR 06 2015

NOTE: "FAIR" INDICATES FEW OR NO CLOUDS BELOW 12,000 FEET WITH NO
SIGNIFICANT WEATHER AND/OR OBSTRUCTIONS TO VISIBILITY.


NDZ001>003-009>011-017-060700-
NORTHWEST NORTH DAKOTA

CITY           SKY/WX    TMP DP  RH WIND       PRES   REMARKS
WILLISTON      CLEAR     31  19  61 NW10      30.04R
6HR MIN TEMP:  30; 6HR MAX TEMP:  40;

MINOT          CLEAR     26  15  63 W14       29.98R WCI  14
MINOT AFB      CLEAR     22  18  83 NW13      29.98R WCI  10
$$

NDZ018>021-031>035-040>046-060700-
SOUTHWEST NORTH DAKOTA

CITY           SKY/WX    TMP DP  RH WIND       PRES   REMARKS
BISMARCK       PTCLDY    24  13  62 W6        30.02F WCI  17
6HR MIN TEMP:  20; 6HR MAX TEMP:  38;

DICKINSON      CLOUDY    30  14  51 W14       30.00S WCI  19
GARRISON         N/A     26  15  63 W15       29.98S WCI  14
6HR MIN TEMP:  18; 6HR MAX TEMP:  29;

HETTINGER ARPT CLOUDY    24  13  62 W6        30.06F WCI  17
$$

NDZ004>008-012>016-024-026-027-054-060700-
NORTHEAST NORTH DAKOTA

CITY           SKY/WX    TMP DP  RH WIND       PRES   REMARKS
GRAND FORKS    CLOUDY    19  11  70 S13       29.96F WCI   6
GRND FRKS AFB  PTCLDY    18  10  70 SW8       29.94F WCI   8
DEVILS LAKE    CLEAR     19  10  68 W15       29.93S WCI   5
$$

NDZ022-023-025-028>030-036>039-047>053-060700-
SOUTHEAST NORTH DAKOTA

CITY           SKY/WX    TMP DP  RH WIND       PRES   REMARKS
FARGO          CLOUDY    17   8  67 S14       30.03F WCI   3
6HR MIN TEMP:  16; 6HR MAX TEMP:  23;

JAMESTOWN      CLEAR     17   9  70 SW5       29.97F WCI  10
$$



USA.gov is the U.S. government's official web portal to all federal, state and local government web resources and services.